Weather History for KBRD - November, 2011

Change the Weather History Date:

Friday, November 18, 2011

  Actual Average (KAIT) Record (KAIT)
Temperature  
Mean Temperature 30 °F -  
Max Temperature 34 °F 34 °F - (-1)
Min Temperature 26 °F 21 °F - (-1)
Degree Days  
Heating Degree Days 35    
Moisture  
Dew Point 20 °F    
Average Humidity 65    
Maximum Humidity 80    
Minimum Humidity 43    
Precipitation  
Precipitation 0.00 in - - ()
Sea Level Pressure  
Sea Level Pressure 29.72 in    
Wind  
Wind Speed 5 mph (NE)    
Max Wind Speed 12 mph    
Max Gust Speed -    
Visibility 10 miles    
Events Snow    
Averages and records for this station are not official NWS values.
T = Trace of Precipitation, MM = Missing Value Source: NWS Daily Summary

Daily Weather History Graph

Daily Weather History Graph

Search for Another Location

Airport or City:

Trip Planner

Search our weather history database for the weather conditions in past years. The results will help you decide how hot, cold, wet, or windy it might be!

Date:

Astronomy

Nov. 18, 2011 Rise Set
Actual Time 7:22 AM CST 4:40 PM CST
Civil Twilight 6:49 AM CST 5:13 PM CST
Nautical Twilight 6:12 AM CST 5:50 PM CST
Astronomical Twilight 5:36 AM CST 6:26 PM CST
Moon No Moon Rise 12:51 PM CST (11/18)
Length of Visible Light 10h 24m
Length of Day
9h 18m
Waning Gibbous, 49% of the Moon is Illuminated
Nov 18
Waning Gibbous
Nov 25
New
Dec 2
First Quarter
Dec 10
Full
Dec 17
Last Quarter

Hourly Weather History & Observations

Time (CST) Temp. Windchill Dew Point Humidity Pressure Visibility Wind Dir Wind Speed Gust Speed Precip Events Conditions
12:53 AM 28.9 °F 21.1 °F 10.9 °F 47% 29.78 in 10.0 mi SE 8.1 mph - N/A   Overcast
1:53 AM 28.9 °F 21.1 °F 9.0 °F 43% 29.76 in 10.0 mi ESE 8.1 mph - N/A   Overcast
2:53 AM 28.9 °F 21.9 °F 10.0 °F 45% 29.73 in 10.0 mi SE 6.9 mph - N/A   Overcast
3:53 AM 28.9 °F 23.9 °F 10.9 °F 47% 29.69 in 10.0 mi Variable 4.6 mph - N/A   Overcast
4:53 AM 28.0 °F - 12.0 °F 51% 29.67 in 10.0 mi Calm Calm - N/A   Clear
5:53 AM 26.1 °F 20.5 °F 14.0 °F 60% 29.70 in 10.0 mi NE 4.6 mph - N/A   Clear
6:53 AM 27.0 °F 19.5 °F 15.1 °F 61% 29.70 in 10.0 mi ENE 6.9 mph - N/A   Clear
7:53 AM 26.1 °F 19.4 °F 12.9 °F 58% 29.70 in 10.0 mi East 5.8 mph - N/A   Clear
8:53 AM 28.0 °F 21.7 °F 15.1 °F 58% 29.68 in 10.0 mi NE 5.8 mph - N/A   Mostly Cloudy
9:53 AM 30.0 °F 24.1 °F 17.1 °F 59% 29.68 in 10.0 mi East 5.8 mph - N/A   Overcast
10:53 AM 32.0 °F 27.5 °F 19.0 °F 59% 29.66 in 10.0 mi ENE 4.6 mph - N/A   Overcast
12:53 PM 34.0 °F 27.2 °F 19.0 °F 54% 29.69 in 10.0 mi North 8.1 mph - N/A   Overcast
1:53 PM 34.0 °F 28.8 °F 19.0 °F 54% 29.68 in 10.0 mi NE 5.8 mph - N/A   Overcast
2:53 PM 34.0 °F 29.8 °F 21.9 °F 61% 29.68 in 3.0 mi ESE 4.6 mph - 0.00 in Snow Light Snow
3:53 PM 33.1 °F 28.7 °F 25.0 °F 72% 29.68 in 6.0 mi SE 4.6 mph - 0.00 in Snow Light Snow
4:53 PM 33.1 °F - 26.1 °F 75% 29.71 in 10.0 mi Calm Calm - 0.00 in   Overcast
5:53 PM 33.1 °F - 26.1 °F 75% 29.73 in 10.0 mi Calm Calm - N/A   Overcast
6:53 PM 33.1 °F - 26.1 °F 75% 29.74 in 10.0 mi Calm Calm - N/A   Overcast
7:53 PM 32.0 °F - 26.1 °F 79% 29.74 in 10.0 mi Calm Calm - N/A   Overcast
8:08 PM 32.0 °F - 26.6 °F 80% 29.70 in 10.0 mi Calm Calm - N/A   Overcast
8:22 PM 32.0 °F - 24.8 °F 75% 29.70 in 10.0 mi Calm Calm - N/A   Overcast
8:53 PM 32.0 °F - 26.1 °F 79% 29.76 in 10.0 mi Calm Calm - N/A   Overcast
9:12 PM 32.0 °F 26.4 °F 26.6 °F 80% 29.71 in 10.0 mi NW 5.8 mph - N/A   Overcast
9:44 PM 32.0 °F 27.5 °F 24.8 °F 75% 29.71 in 10.0 mi NW 4.6 mph - N/A   Overcast
9:53 PM 32.0 °F 26.4 °F 25.0 °F 75% 29.76 in 10.0 mi NW 5.8 mph - N/A   Overcast
10:07 PM 32.0 °F 23.0 °F 24.8 °F 75% 29.72 in 10.0 mi NW 11.5 mph - N/A   Overcast
10:53 PM 30.0 °F 21.7 °F 24.1 °F 79% 29.81 in 10.0 mi WNW 9.2 mph - N/A   Overcast
11:53 PM 30.0 °F 23.2 °F 23.0 °F 75% 29.81 in 10.0 mi WNW 6.9 mph - N/A   Overcast